DW7898 Weather Reports


time (UTC)temp
C
wind
direction
speed
KPH
gust
KPH
rain 1hr
cm
rain 24hr
cm
rain mn
cm
humidity
%
barometer
mb
20260905123351 35 94 3.2 12.9 0.00 0.00 0.00 29 1023.4
20260905122342 34 105 8.0 20.9 0.00 0.00 0.00 29 1023.3
20260905121351 34 177 6.4 16.1 0.00 0.00 0.00 29 1023.5
20260905120350 34 229 6.4 17.7 0.00 0.00 0.00 29 1023.4
20260905115401 34 139 9.7 17.7 0.00 0.00 0.00 30 1023.5
20260905114352 34 141 6.4 16.1 0.00 0.00 0.00 29 1023.5
20260905113347 34 260 6.4 20.9 0.00 0.00 0.00 30 1023.6
20260905112342 34 142 11.3 20.9 0.00 0.00 0.00 30 1023.4
20260905111359 34 97 9.7 22.5 0.00 0.00 0.00 30 1023.3
20260905110351 34 107 8.0 19.3 0.00 0.00 0.00 30 1023.3
20260905105345 34 165 11.3 16.1 0.00 0.00 0.00 30 1023.3
20260905104401 34 66 1.6 20.9 0.00 0.00 0.00 31 1023.3
20260905103358 34 128 12.9 19.3 0.00 0.00 0.00 30 1023.4
20260905102343 34 94 4.8 19.3 0.00 0.00 0.00 31 1023.3
20260905101358 34 98 6.4 14.5 0.00 0.00 0.00 31 1023.4
20260905100354 33 80 4.8 14.5 0.00 0.00 0.00 34 1023.3
20260905095348 33 11 1.6 6.4 0.00 0.00 0.00 38 1023.2
20260905094402 32 10 0.0 4.8 0.00 0.00 0.00 41 1023.3
20260905093400 32 10 3.2 6.4 0.00 0.00 0.00 43 1023.3
20260905092348 31 18 0.0 3.2 0.00 0.00 0.00 45 1023.3
20260905091345 30 18 0.0 4.8 0.00 0.00 0.00 49 1023.2
20260905090401 30 21 0.0 4.8 0.00 0.00 0.00 52 1023.3
20260905085353 29 23 0.0 6.4 0.00 0.00 0.00 55 1023.1
20260905084344 28 28 0.0 4.8 0.00 0.00 0.00 56 1023.1
20260905083403 28 27 1.6 4.8 0.00 0.00 0.00 58 1023.0
20260905082355 27 31 0.0 4.8 0.00 0.00 0.00 60 1022.9
20260905081350 27 34 3.2 4.8 0.00 0.00 0.00 62 1023.0
20260905080350 26 33 0.0 4.8 0.00 0.00 0.00 64 1023.0
20260905075348 26 35 0.0 3.2 0.00 0.00 0.00 67 1022.9
20260905074347 26 35 0.0 4.8 0.00 0.00 0.00 69 1022.8
20260905073347 25 35 1.6 3.2 0.00 0.00 0.00 72 1022.8
20260905072401 25 35 0.0 3.2 0.00 0.00 0.00 74 1022.8
20260905071356 24 35 1.6 4.8 0.00 0.00 0.00 76 1022.8
20260905070359 23 35 0.0 4.8 0.00 0.00 0.00 79 1022.8
20260905065347 23 35 0.0 4.8 0.00 0.00 0.00 79 1022.6
20260905064350 23 35 1.6 4.8 0.00 0.00 0.00 81 1022.5
20260905063352 22 33 1.6 4.8 0.00 0.00 0.00 82 1022.5
20260905062347 22 33 1.6 3.2 0.00 0.00 0.00 82 1022.3
20260905061342 22 33 0.0 3.2 0.00 0.00 0.00 83 1022.2
20260905060342 22 32 0.0 6.4 0.00 0.00 0.00 84 1022.3
20260905055353 22 33 0.0 3.2 0.00 0.00 0.00 85 1022.2
20260905054350 22 33 0.0 0.0 0.00 0.00 0.00 85 1021.9
20260905053351 22 46 0.0 0.0 0.00 0.00 0.00 85 1021.8
20260905052342 22 46 0.0 0.0 0.00 0.00 0.00 85 1021.9
20260905051344 22 46 0.0 0.0 0.00 0.00 0.00 84 1021.6
20260905050357 22 46 0.0 0.0 0.00 0.00 0.00 84 1021.6
20260905045355 22 46 0.0 0.0 0.00 0.00 0.00 84 1021.6
20260905044357 22 46 0.0 0.0 0.00 0.00 0.00 84 1021.6
20260905043341 23 46 0.0 0.0 0.00 0.00 0.00 84 1021.6
20260905042358 23 46 0.0 0.0 0.00 0.00 0.00 84 1021.4
20260905041355 23 46 0.0 0.0 0.00 0.00 0.00 83 1021.5
20260905040356 23 46 0.0 0.0 0.00 0.00 0.00 83 1021.4
20260905035347 23 46 0.0 0.0 0.00 0.00 0.00 83 1021.4
20260905034347 23 46 0.0 4.8 0.00 0.00 0.00 83 1021.5
20260905033349 23 46 3.2 4.8 0.00 0.00 0.00 83 1021.3
20260905032347 23 48 0.0 3.2 0.00 0.00 0.00 83 1021.3
20260905031348 23 48 0.0 3.2 0.00 0.00 0.00 83 1021.2
20260905030350 23 47 0.0 3.2 0.00 0.00 0.00 82 1021.3
20260905025344 23 47 3.2 6.4 0.00 0.00 0.00 82 1021.4
20260905024343 23 119 3.2 6.4 0.00 0.00 0.00 81 1021.3
20260905023345 23 125 0.0 4.8 0.00 0.00 0.00 82 1021.2
20260905022340 24 126 0.0 1.6 0.00 0.00 0.00 82 1021.3
20260905021357 24 126 0.0 3.2 0.00 0.00 0.00 81 1021.3
20260905020359 24 126 1.6 3.2 0.00 0.00 0.00 81 1021.4
20260905015350 24 126 0.0 0.0 0.00 0.00 0.00 81 1021.3
20260905014346 25 127 0.0 0.0 0.00 0.00 0.00 81 1021.3
20260905013346 25 126 0.0 0.0 0.00 0.00 0.00 81 1021.3
20260905012345 25 127 0.0 0.0 0.00 0.00 0.00 80 1021.4
20260905011344 25 127 0.0 0.0 0.00 0.00 0.00 80 1021.4
20260905010350 25 126 0.0 0.0 0.00 0.00 0.00 80 1021.4
20260905005343 25 126 0.0 0.0 0.00 0.00 0.00 80 1021.5
20260905004344 25 126 0.0 0.0 0.00 0.00 0.00 79 1021.6
20260905003344 25 126 0.0 0.0 0.00 0.00 0.00 79 1021.5
20260905002358 25 126 0.0 0.0 0.00 0.00 0.00 78 1021.6
20260905001356 25 126 0.0 0.0 0.00 0.00 0.00 78 1021.7
20260905000352 25 126 0.0 0.0 0.00 0.00 0.00 78 1021.6
20260904235346 25 127 0.0 0.0 0.00 0.00 0.00 78 1021.6
20260904234349 25 126 0.0 0.0 0.00 0.00 0.00 78 1021.7
20260904233346 25 126 0.0 0.0 0.00 0.00 0.00 78 1021.7
20260904232400 25 126 0.0 1.6 0.00 0.00 0.00 77 1021.7
20260904231358 26 126 0.0 3.2 0.00 0.00 0.00 77 1021.8
20260904230358 26 126 1.6 3.2 0.00 0.00 0.00 76 1021.9
20260904225349 26 126 1.6 3.2 0.00 0.00 0.00 76 1021.9
20260904224344 26 126 0.0 1.6 0.00 0.00 0.00 75 1021.9
20260904223345 26 126 0.0 3.2 0.00 0.00 0.00 75 1021.9
20260904222358 26 126 1.6 3.2 0.00 0.00 0.00 75 1021.9
20260904221351 26 126 0.0 4.8 0.00 0.00 0.00 74 1021.8
20260904220349 26 127 0.0 4.8 0.00 0.00 0.00 74 1021.8
20260904215403 26 126 3.2 6.4 0.00 0.00 0.00 73 1021.7
20260904214342 26 127 3.2 6.4 0.00 0.00 0.00 72 1021.7
20260904213342 26 126 0.0 0.0 0.00 0.00 0.00 72 1021.7
20260904212344 26 126 0.0 1.6 0.00 0.00 0.00 73 1021.9
20260904211345 26 126 0.0 4.8 0.00 0.00 0.00 73 1021.8
20260904210349 27 126 0.0 0.0 0.00 0.00 0.00 73 1021.8
20260904205343 27 126 0.0 0.0 0.00 0.00 0.00 74 1021.9
20260904204349 27 126 0.0 0.0 0.00 0.00 0.00 74 1021.8
20260904203400 27 126 0.0 1.6 0.00 0.00 0.00 73 1021.9
20260904202350 27 126 0.0 1.6 0.00 0.00 0.00 74 1021.9
20260904201348 27 126 0.0 1.6 0.00 0.00 0.00 74 1021.8
20260904200344 27 126 0.0 1.6 0.00 0.00 0.00 75 1021.8
20260904195348 27 126 1.6 3.2 0.00 0.00 0.00 76 1021.7
20260904194402 27 126 0.0 4.8 0.00 0.00 0.00 76 1021.6
20260904193354 27 126 3.2 6.4 0.00 0.00 0.00 77 1021.7
20260904192405 27 126 3.2 6.4 0.00 0.00 0.00 77 1021.6
20260904191354 27 126 1.6 3.2 0.00 0.00 0.00 77 1021.6
20260904190344 27 126 1.6 4.8 0.00 0.00 0.00 78 1021.5
20260904185350 27 126 0.0 3.2 0.00 0.00 0.00 78 1021.3
20260904184400 27 126 3.2 4.8 0.00 0.00 0.00 78 1021.1
20260904183352 27 127 1.6 9.7 0.00 0.00 0.00 78 1020.9
20260904182342 27 127 4.8 9.7 0.00 0.00 0.00 78 1020.7
20260904181342 27 121 8.0 11.3 0.00 0.00 0.00 77 1020.6
20260904180343 28 149 6.4 14.5 0.00 0.00 0.00 77 1020.4
20260904175355 28 110 8.0 14.5 0.00 0.00 0.00 75 1020.5
20260904174353 28 134 6.4 12.9 0.00 0.00 0.00 74 1020.5
20260904173343 28 130 3.2 14.5 0.00 0.00 0.00 74 1020.4
20260904172359 28 137 8.0 16.1 0.00 0.00 0.00 75 1020.2
20260904171343 28 155 9.7 24.1 0.00 0.00 0.00 75 1020.1
20260904170347 28 117 12.9 24.1 0.00 0.00 0.00 74 1019.9
20260904165403 28 119 12.9 25.7 0.00 0.00 0.00 72 1019.9
20260904164350 28 102 9.7 25.7 0.00 0.00 0.00 70 1020.1
20260904163348 28 119 11.3 20.9 0.00 0.00 0.00 69 1020.0
20260904162343 28 113 11.3 24.1 0.00 0.00 0.00 68 1020.1
20260904161355 29 97 9.7 20.9 0.00 0.00 0.00 68 1020.1
20260904160349 29 144 12.9 22.5 0.00 0.00 0.00 68 1020.1
20260904155406 29 148 8.0 22.5 0.00 0.00 0.00 68 1020.1
20260904154359 29 111 9.7 24.1 0.00 0.00 0.00 67 1020.1
20260904153354 30 102 11.3 22.5 0.00 0.00 0.00 66 1020.1
20260904152402 30 144 9.7 22.5 0.00 0.00 0.00 66 1020.0
20260904151356 30 122 12.9 25.7 0.00 0.00 0.00 65 1020.1
20260904150348 30 129 12.9 20.9 0.00 0.00 0.00 65 1020.1
20260904145403 30 125 9.7 19.3 0.00 0.00 0.00 64 1020.1
20260904144401 30 113 9.7 22.5 0.00 0.00 0.00 64 1020.0
20260904143400 30 120 9.7 24.1 0.00 0.00 0.00 63 1020.1
20260904142348 30 129 9.7 20.9 0.00 0.00 0.00 61 1020.2
20260904141347 30 185 11.3 19.3 0.00 0.00 0.00 60 1020.2
20260904140403 31 128 16.1 22.5 0.00 0.00 0.00 59 1020.4
20260904135351 31 166 4.8 20.9 0.00 0.00 0.00 58 1020.2
20260904134347 31 101 14.5 24.1 0.00 0.00 0.00 57 1020.5
20260904133401 31 160 8.0 22.5 0.00 0.00 0.00 58 1020.5
20260904132343 31 138 9.7 19.3 0.00 0.00 0.00 57 1020.5
20260904131359 31 120 12.9 29.0 0.00 0.00 0.00 58 1020.4
20260904130346 31 133 14.5 20.9 0.00 0.00 0.00 56 1020.5
20260904125351 31 136 16.1 24.1 0.00 0.00 0.00 56 1020.5
20260904124348 31 87 11.3 24.1 0.00 0.00 0.00 56 1020.6